Flag for Germany Weather past 2 weeks in Garbsen, Lower Saxony, Germany

Now
34 °F

Passing clouds.


Feels Like: 27 °F
Forecast: 33 / 36 °F
Wind: 8 mph from Southeast

Location: Hannover

Current Time: Jan 29, 2015 at 9:37:03 PM

Latest Report: Jan 29, 2015 at 9:20 PM


Visibility: N/A

Pressure: 28.80 "Hg

Humidity: 93%

Dew point: 32 °F

Location of GarbsenLocation

Historic Weather in Garbsen — Graph

°F

Garbsen temperature yesterday

Maximum temperature yesterday: 43 °F (at 1:50 PM)
Minimum temperature yesterday: 36 °F (at 12:20 AM)
Average temperature yesterday: 39 °F

Past Weeks' High & Low Weather Summary

 TemperatureHumidityPressure
High50 °F (Jan 15, 2:50 PM)100% (Jan 20, 4:50 AM)30.30 "Hg (Jan 20, 4:50 AM)
Low23 °F (Jan 21, 5:50 AM)62% (Jan 16, 11:20 AM)28.85 "Hg (Jan 29, 7:50 PM)
Average35 °F87%29.90 "Hg
* Reported Jan 14 8:20 PM — Jan 29 8:20 PM, Garbsen, Weather by CustomWeather, © 2014

Note: Actual official high and low records may vary slightly from our data, if they occured in-between our weather recording intervals... More about our weather records

Advertising

Garbsen weather history for previous 24 hours

 ConditionsComfort  
Time TempWeatherWind HumidityBarometerVisibility
8:20 PM
Jan 29
34 °FSprinkles. Passing clouds.6 mph93%28.85 "HgN/A
7:50 PM32 °FPassing clouds.2 mph100%28.85 "HgN/A
7:20 PM34 °FPassing clouds.13 mph93%28.88 "HgN/A
6:50 PM36 °FPassing clouds.14 mph87%28.88 "HgN/A
6:20 PM36 °FPassing clouds.15 mph87%28.91 "HgN/A
5:50 PM36 °FPassing clouds.13 mph87%28.91 "HgN/A
5:20 PM36 °FPassing clouds.13 mph87%28.94 "HgN/A
4:50 PM37 °FSprinkles. Broken clouds.13 mph81%28.94 "HgN/A
4:20 PM37 °FPartly sunny.10 mph81%28.97 "HgN/A
3:50 PM37 °FBroken clouds.13 mph81%28.97 "HgN/A
3:20 PM37 °FBroken clouds.14 mph87%29.00 "HgN/A
2:50 PM36 °FBroken clouds.9 mph93%29.03 "HgN/A
2:20 PM34 °FSprinkles. Partly sunny.16 mph93%29.03 "HgN/A
1:50 PM36 °FBroken clouds.13 mph93%29.06 "HgN/A
1:20 PM34 °FPartly sunny.12 mph93%29.06 "HgN/A
12:50 PM34 °FSprinkles. Partly sunny.13 mph93%29.09 "Hg2 mi
12:20 PM36 °FPartly sunny.13 mph87%29.09 "HgN/A
11:50 AM36 °FSprinkles. Broken clouds.14 mph93%29.12 "Hg5 mi
11:20 AM36 °FSprinkles. Broken clouds.15 mph87%29.12 "HgN/A
10:50 AM36 °FSprinkles. Partly sunny.14 mph87%29.15 "HgN/A
10:20 AM34 °FSnow flurries. Broken clouds.12 mph93%29.15 "HgN/A
9:50 AM36 °FSnow flurries. Partly sunny.14 mph81%29.15 "HgN/A
9:20 AM36 °FBroken clouds.16 mph81%29.18 "HgN/A
8:50 AM36 °FBroken clouds.16 mph75%29.18 "HgN/A
8:20 AM36 °FScattered showers. Partly sunny.18 mph75%29.18 "HgN/A
7:50 AM36 °FPassing clouds.16 mph75%29.21 "HgN/A
7:20 AM36 °FPassing clouds.18 mph75%29.21 "HgN/A
6:50 AM36 °FPassing clouds.18 mph75%29.21 "HgN/A
6:20 AM36 °FPassing clouds.17 mph75%29.21 "HgN/A
5:50 AM36 °FPassing clouds.17 mph75%29.24 "HgN/A
5:20 AM36 °FPassing clouds.18 mph75%29.24 "HgN/A
4:20 AM36 °FPassing clouds.20 mph81%29.27 "HgN/A
3:50 AM36 °FPassing clouds.16 mph81%29.27 "HgN/A
3:20 AM36 °FPassing clouds.16 mph81%29.27 "HgN/A
2:50 AM37 °FPassing clouds.16 mph75%29.27 "HgN/A
2:20 AM37 °FPassing clouds.17 mph75%29.27 "HgN/A
1:50 AM37 °FPartly cloudy.18 mph81%29.27 "HgN/A
1:20 AM37 °FPartly cloudy.16 mph81%29.27 "HgN/A
12:50 AM37 °FPassing clouds.16 mph81%29.27 "HgN/A
12:20 AM36 °FPassing clouds.16 mph87%29.30 "HgN/A
11:50 PM
Jan 28
36 °FPassing clouds.16 mph87%29.30 "HgN/A
11:20 PM36 °FPassing clouds.14 mph87%29.30 "HgN/A
10:50 PM36 °FPassing clouds.16 mph87%29.30 "HgN/A
10:20 PM36 °FPartly cloudy.16 mph87%29.30 "HgN/A
9:50 PM37 °FPassing clouds.18 mph81%29.30 "HgN/A
9:20 PM37 °FPartly cloudy.16 mph87%29.30 "HgN/A
Weather by CustomWeather, © 2014

See weather overviewHow to use our weather pages